sat.trackr.live / text

‹ back to catalog

KUIPER-00018

NORAD 63733 · 2025-088K

PAYLOAD ACTIVE UNKNOWN

§ Identity

Operator
Country
US
Launch date
2025-04-28
Launch site
AFETR
Launch vehicle
Mass (kg)
RCS (m²)

External: N2YO · Heavens-Above · Gunter

§ Orbital elements

Epoch: 2026-05-25T05:36:43.027776Z

Period
97.30 min
Inclination
51.9029°
Eccentricity
0.0000415
Mean motion
14.79931033 rev/d
Perigee alt
629.3 km
Apogee alt
629.8 km
Semi-major
7,007.7 km
B*
-1.9218e-4
RAAN
122.1078°
Arg perigee
78.4897°
Mean anomaly
281.6112°
Rev number
5,882

§ Raw data

KUIPER-000181 63733U 25088K   26145.23383134 -.00001686  00000+0 -19218-3 0  99962 63733  51.9029 122.1078 0000415  78.4897 281.6112 14.79931033 58828

JSON: /api/v1/satellites/63733 · /tle

For live sub-satellite position, see the globe view (requires WebGL).

§ Visibility from observer

Set your observer location to see the next 7 days of passes ≥ 10°. The values pass through the URL so the page stays shareable.

No JS? Fill the form by hand. The geolocation button needs JavaScript.